Time,TemperatureF,DewpointF,PressureIn,WindDirection,WindDirectionDegrees,WindSpeedMPH,WindSpeedGustMPH,Humidity,HourlyPrecipIn,Conditions,Clouds,dailyrainin,SoftwareType,DateUTC
2013-10-11 00:01:00,54.1,50.0,30.09,NE,40,2.0,5.0,86,0.00,,---,0.00,VWS V13.01,2013-10-11 04:01:00,
2013-10-11 00:06:00,54.1,50.0,30.09,NE,37,2.0,5.0,86,0.00,,---,0.00,VWS V13.01,2013-10-11 04:06:00,
2013-10-11 00:11:00,54.2,50.1,30.09,NNE,25,4.0,6.0,86,0.00,,---,0.00,VWS V13.01,2013-10-11 04:11:00,
2013-10-11 00:16:00,54.2,49.8,30.09,NNE,16,2.0,7.0,85,0.00,,---,0.00,VWS V13.01,2013-10-11 04:16:00,
2013-10-11 00:21:00,54.2,49.8,30.09,NNE,12,1.0,5.0,85,0.00,,---,0.00,VWS V13.01,2013-10-11 04:21:00,
2013-10-11 00:26:00,54.2,49.8,30.08,NE,34,1.0,6.0,85,0.00,,---,0.00,VWS V13.01,2013-10-11 04:26:00,
2013-10-11 00:31:00,54.2,49.8,30.08,NNE,16,2.0,3.0,85,0.00,,---,0.00,VWS V13.01,2013-10-11 04:31:00,
2013-10-11 00:36:00,54.3,49.9,30.08,NE,35,2.0,5.0,85,0.00,,---,0.00,VWS V13.01,2013-10-11 04:36:00,
2013-10-11 00:41:00,54.3,49.9,30.07,NNE,32,3.0,5.0,85,0.00,,---,0.00,VWS V13.01,2013-10-11 04:41:00,
2013-10-11 00:46:00,54.3,49.9,30.07,NE,44,1.0,6.0,85,0.00,,---,0.00,VWS V13.01,2013-10-11 04:46:00,
2013-10-11 00:51:00,54.2,49.8,30.07,NNE,19,4.0,6.0,85,0.00,,---,0.00,VWS V13.01,2013-10-11 04:51:00,
2013-10-11 00:56:00,54.2,49.8,30.07,NE,36,3.0,7.0,85,0.00,,---,0.00,VWS V13.01,2013-10-11 04:56:00,
2013-10-11 01:01:00,54.1,50.0,30.06,NE,53,4.0,6.0,86,0.00,,---,0.00,VWS V13.01,2013-10-11 05:01:00,
2013-10-11 01:06:00,54.0,49.9,30.06,NE,41,2.0,8.0,86,0.00,,---,0.00,VWS V13.01,2013-10-11 05:06:00,
2013-10-11 01:11:00,53.8,50.0,30.06,NE,46,3.0,5.0,87,0.00,,---,0.00,VWS V13.01,2013-10-11 05:11:00,
2013-10-11 01:16:00,53.7,49.9,30.06,NE,37,3.0,6.0,87,0.00,,---,0.00,VWS V13.01,2013-10-11 05:16:00,
2013-10-11 01:21:00,53.6,50.1,30.06,NNE,26,2.0,3.0,88,0.00,,---,0.00,VWS V13.01,2013-10-11 05:21:00,
2013-10-11 01:26:00,53.5,50.0,30.06,NNE,17,2.0,4.0,88,0.00,,---,0.00,VWS V13.01,2013-10-11 05:26:00,
2013-10-11 01:31:00,53.5,50.0,30.06,NNE,17,2.0,3.0,88,0.00,,---,0.00,VWS V13.01,2013-10-11 05:31:00,
2013-10-11 01:36:00,53.4,49.9,30.06,NNE,17,0.0,3.0,88,0.00,,---,0.00,VWS V13.01,2013-10-11 05:36:00,
2013-10-11 01:41:00,53.3,49.8,30.05,NNE,17,0.0,1.0,88,0.00,,---,0.00,VWS V13.01,2013-10-11 05:41:00,
2013-10-11 01:46:00,53.3,49.8,30.06,NNE,17,0.0,1.0,88,0.00,,---,0.00,VWS V13.01,2013-10-11 05:46:00,
2013-10-11 01:51:00,53.3,49.8,30.06,NNE,17,0.0,1.0,88,0.00,,---,0.00,VWS V13.01,2013-10-11 05:51:00,
2013-10-11 01:56:00,53.3,49.8,30.06,NNE,17,0.0,1.0,88,0.00,,---,0.00,VWS V13.01,2013-10-11 05:56:00,
2013-10-11 02:01:00,53.2,49.7,30.06,NNE,17,0.0,0.0,88,0.00,,---,0.00,VWS V13.01,2013-10-11 06:01:00,
2013-10-11 02:06:00,53.2,49.7,30.06,NNE,17,0.0,0.0,88,0.00,,---,0.00,VWS V13.01,2013-10-11 06:06:00,
2013-10-11 02:11:00,53.2,50.0,30.06,NNE,17,0.0,1.0,89,0.00,,---,0.00,VWS V13.01,2013-10-11 06:11:00,
2013-10-11 02:16:00,53.3,49.8,30.06,NNE,17,0.0,1.0,88,0.00,,---,0.00,VWS V13.01,2013-10-11 06:16:00,
2013-10-11 02:21:00,53.4,49.6,30.06,NNE,17,0.0,2.0,87,0.00,,---,0.00,VWS V13.01,2013-10-11 06:21:00,
2013-10-11 02:26:00,53.5,49.7,30.06,NNE,17,0.0,2.0,87,0.00,,---,0.00,VWS V13.01,2013-10-11 06:26:00,
2013-10-11 02:31:00,53.6,49.8,30.06,NNE,17,1.0,2.0,87,0.00,,---,0.00,VWS V13.01,2013-10-11 06:31:00,
2013-10-11 02:36:00,53.7,49.9,30.06,NNE,17,0.0,2.0,87,0.00,,---,0.00,VWS V13.01,2013-10-11 06:36:00,
2013-10-11 02:41:00,53.8,50.0,30.06,NNE,17,0.0,0.0,87,0.00,,---,0.00,VWS V13.01,2013-10-11 06:41:00,
2013-10-11 02:46:00,53.8,49.7,30.05,NNE,17,0.0,1.0,86,0.00,,---,0.00,VWS V13.01,2013-10-11 06:46:00,
2013-10-11 02:51:00,53.9,50.1,30.06,NNE,17,0.0,1.0,87,0.00,,---,0.00,VWS V13.01,2013-10-11 06:51:00,
2013-10-11 02:56:00,53.9,50.1,30.06,NNE,17,0.0,1.0,87,0.00,,---,0.00,VWS V13.01,2013-10-11 06:56:00,
2013-10-11 03:01:00,54.0,49.9,30.05,NNE,14,3.0,3.0,86,0.00,,---,0.00,VWS V13.01,2013-10-11 07:01:00,
2013-10-11 03:06:00,53.9,49.8,30.05,North,11,1.0,4.0,86,0.00,,---,0.00,VWS V13.01,2013-10-11 07:06:00,
2013-10-11 03:11:00,53.9,49.8,30.06,NNE,28,2.0,4.0,86,0.00,,---,0.00,VWS V13.01,2013-10-11 07:11:00,
2013-10-11 03:16:00,54.0,49.9,30.06,NNE,26,0.0,4.0,86,0.00,,---,0.00,VWS V13.01,2013-10-11 07:16:00,
2013-10-11 03:21:00,54.0,49.9,30.06,NNE,26,0.0,1.0,86,0.00,,---,0.00,VWS V13.01,2013-10-11 07:21:00,
2013-10-11 03:26:00,54.0,49.6,30.06,NNE,26,0.0,1.0,85,0.00,,---,0.00,VWS V13.01,2013-10-11 07:26:00,
2013-10-11 03:31:00,54.0,49.6,30.05,NNE,26,0.0,1.0,85,0.00,,---,0.00,VWS V13.01,2013-10-11 07:31:00,
2013-10-11 03:36:00,54.0,49.6,30.05,NNE,26,0.0,3.0,85,0.00,,---,0.00,VWS V13.01,2013-10-11 07:36:00,
2013-10-11 03:41:00,54.0,49.6,30.06,NNE,23,0.0,2.0,85,0.00,,---,0.00,VWS V13.01,2013-10-11 07:41:00,
2013-10-11 03:46:00,53.9,49.5,30.06,NNE,13,0.0,3.0,85,0.00,,---,0.00,VWS V13.01,2013-10-11 07:46:00,
2013-10-11 03:51:00,53.9,49.5,30.05,NNE,13,1.0,2.0,85,0.00,,---,0.00,VWS V13.01,2013-10-11 07:51:00,
2013-10-11 03:56:00,53.9,49.5,30.05,North,360,1.0,5.0,85,0.00,,---,0.00,VWS V13.01,2013-10-11 07:56:00,
2013-10-11 04:01:00,53.8,49.4,30.06,North,5,1.0,3.0,85,0.00,,---,0.00,VWS V13.01,2013-10-11 08:01:00,
2013-10-11 04:06:00,53.8,49.4,30.05,North,10,2.0,5.0,85,0.00,,---,0.00,VWS V13.01,2013-10-11 08:06:00,
2013-10-11 04:11:00,53.7,49.6,30.06,NNE,30,3.0,4.0,86,0.00,,---,0.00,VWS V13.01,2013-10-11 08:11:00,
2013-10-11 04:16:00,53.7,49.6,30.06,NE,44,3.0,4.0,86,0.00,,---,0.00,VWS V13.01,2013-10-11 08:16:00,
2013-10-11 04:21:00,53.7,49.6,30.06,NE,37,3.0,5.0,86,0.00,,---,0.00,VWS V13.01,2013-10-11 08:21:00,
2013-10-11 04:26:00,53.5,49.7,30.06,NNE,32,5.0,5.0,87,0.00,,---,0.00,VWS V13.01,2013-10-11 08:26:00,
2013-10-11 04:31:00,53.3,49.5,30.06,North,9,2.0,6.0,87,0.00,,---,0.00,VWS V13.01,2013-10-11 08:31:00,
2013-10-11 04:36:00,53.2,49.7,30.06,NNE,29,2.0,6.0,88,0.00,,---,0.00,VWS V13.01,2013-10-11 08:36:00,
2013-10-11 04:41:00,53.0,49.5,30.06,NNE,24,1.0,4.0,88,0.00,,---,0.00,VWS V13.01,2013-10-11 08:41:00,
2013-10-11 04:46:00,52.8,49.7,30.06,NNE,21,1.0,4.0,89,0.00,,---,0.00,VWS V13.01,2013-10-11 08:46:00,
2013-10-11 04:51:00,52.6,49.8,30.06,NNE,23,2.0,5.0,90,0.00,,---,0.00,VWS V13.01,2013-10-11 08:51:00,
2013-10-11 04:56:00,52.5,49.7,30.06,NNE,26,3.0,6.0,90,0.01,,---,0.01,VWS V13.01,2013-10-11 08:56:00,
2013-10-11 05:01:00,52.3,49.5,30.06,NNE,32,2.0,6.0,90,0.01,,---,0.01,VWS V13.01,2013-10-11 09:01:00,
2013-10-11 05:06:00,52.1,49.6,30.06,NNE,14,1.0,6.0,91,0.01,,---,0.01,VWS V13.01,2013-10-11 09:06:00,
2013-10-11 05:11:00,52.0,49.5,30.05,NE,41,4.0,6.0,91,0.01,,---,0.01,VWS V13.01,2013-10-11 09:11:00,
2013-10-11 05:16:00,51.9,49.4,30.05,North,360,1.0,6.0,91,0.01,,---,0.01,VWS V13.01,2013-10-11 09:16:00,
2013-10-11 05:21:00,51.8,49.5,30.05,NNE,28,2.0,5.0,92,0.01,,---,0.01,VWS V13.01,2013-10-11 09:21:00,
2013-10-11 05:26:00,51.7,49.5,30.05,North,11,1.0,6.0,92,0.01,,---,0.01,VWS V13.01,2013-10-11 09:26:00,
2013-10-11 05:31:00,51.7,49.5,30.06,NE,38,4.0,6.0,92,0.01,,---,0.01,VWS V13.01,2013-10-11 09:31:00,
2013-10-11 05:36:00,51.6,49.4,30.06,NNE,32,3.0,6.0,92,0.01,,---,0.01,VWS V13.01,2013-10-11 09:36:00,
2013-10-11 05:41:00,51.6,49.4,30.06,NNE,30,3.0,5.0,92,0.01,,---,0.01,VWS V13.01,2013-10-11 09:41:00,
2013-10-11 05:46:00,51.5,49.5,30.06,NE,42,2.0,5.0,93,0.01,,---,0.01,VWS V13.01,2013-10-11 09:46:00,
2013-10-11 05:51:00,51.6,49.7,30.06,NE,35,3.0,4.0,93,0.01,,---,0.01,VWS V13.01,2013-10-11 09:51:00,
2013-10-11 05:56:00,51.5,49.5,30.06,NE,37,2.0,4.0,93,0.02,,---,0.02,VWS V13.01,2013-10-11 09:56:00,
2013-10-11 06:01:00,51.5,49.5,30.06,NE,39,4.0,4.0,93,0.01,,---,0.02,VWS V13.01,2013-10-11 10:01:00,
2013-10-11 06:06:00,51.5,49.5,30.06,NE,43,1.0,4.0,93,0.02,,---,0.03,VWS V13.01,2013-10-11 10:06:00,
2013-10-11 06:11:00,51.4,49.5,30.06,NNE,19,2.0,4.0,93,0.03,,---,0.04,VWS V13.01,2013-10-11 10:11:00,
2013-10-11 06:16:00,51.4,49.7,30.06,NE,36,2.0,4.0,94,0.05,,---,0.06,VWS V13.01,2013-10-11 10:16:00,
2013-10-11 06:21:00,51.4,49.7,30.06,NE,38,3.0,3.0,94,0.07,,---,0.08,VWS V13.01,2013-10-11 10:21:00,
2013-10-11 06:26:00,51.4,49.7,30.06,North,360,4.0,5.0,94,0.09,,---,0.10,VWS V13.01,2013-10-11 10:26:00,
2013-10-11 06:31:00,51.4,49.7,30.06,North,5,3.0,4.0,94,0.11,,---,0.12,VWS V13.01,2013-10-11 10:31:00,
2013-10-11 06:36:00,51.4,49.7,30.06,North,11,2.0,4.0,94,0.13,,---,0.14,VWS V13.01,2013-10-11 10:36:00,
2013-10-11 06:41:00,51.4,50.0,30.06,NNE,22,0.0,2.0,95,0.14,,---,0.15,VWS V13.01,2013-10-11 10:41:00,
2013-10-11 06:46:00,51.4,50.0,30.07,NE,45,1.0,4.0,95,0.15,,---,0.16,VWS V13.01,2013-10-11 10:46:00,
2013-10-11 06:51:00,51.4,50.0,30.07,NNE,19,1.0,3.0,95,0.17,,---,0.18,VWS V13.01,2013-10-11 10:51:00,
2013-10-11 06:56:00,51.4,50.0,30.07,NNE,19,1.0,3.0,95,0.17,,---,0.18,VWS V13.01,2013-10-11 10:56:00,
2013-10-11 07:01:00,51.4,50.0,30.07,NNE,19,0.0,2.0,95,0.16,,---,0.18,VWS V13.01,2013-10-11 11:01:00,
2013-10-11 07:06:00,51.4,50.0,30.07,NNE,19,0.0,2.0,95,0.17,,---,0.19,VWS V13.01,2013-10-11 11:06:00,
2013-10-11 07:11:00,51.4,50.0,30.06,NNE,19,1.0,1.0,95,0.15,,---,0.19,VWS V13.01,2013-10-11 11:11:00,
2013-10-11 07:16:00,51.5,50.1,30.06,NNE,32,0.0,4.0,95,0.15,,---,0.19,VWS V13.01,2013-10-11 11:16:00,
2013-10-11 07:21:00,51.5,50.1,30.06,NNE,32,0.0,1.0,95,0.12,,---,0.19,VWS V13.01,2013-10-11 11:21:00,
2013-10-11 07:26:00,51.5,50.1,30.06,NNE,32,2.0,3.0,95,0.12,,---,0.19,VWS V13.01,2013-10-11 11:26:00,
2013-10-11 07:31:00,51.5,50.1,30.07,NNE,32,0.0,1.0,95,0.07,,---,0.19,VWS V13.01,2013-10-11 11:31:00,
2013-10-11 07:36:00,51.5,50.1,30.07,NNE,12,1.0,3.0,95,0.07,,---,0.19,VWS V13.01,2013-10-11 11:36:00,
2013-10-11 07:41:00,51.6,50.2,30.07,NNE,30,2.0,3.0,95,0.06,,---,0.20,VWS V13.01,2013-10-11 11:41:00,
2013-10-11 07:46:00,51.6,50.2,30.07,NE,44,2.0,4.0,95,0.06,,---,0.20,VWS V13.01,2013-10-11 11:46:00,
2013-10-11 07:51:00,51.5,50.1,30.07,North,351,3.0,4.0,95,0.03,,---,0.20,VWS V13.01,2013-10-11 11:51:00,
2013-10-11 07:56:00,51.5,50.1,30.07,North,355,2.0,5.0,95,0.03,,---,0.20,VWS V13.01,2013-10-11 11:56:00,
2013-10-11 08:01:00,51.5,50.1,30.07,North,10,2.0,4.0,95,0.02,,---,0.20,VWS V13.01,2013-10-11 12:01:00,
2013-10-11 08:06:00,51.5,50.1,30.07,NNE,30,6.0,6.0,95,0.03,,---,0.21,VWS V13.01,2013-10-11 12:06:00,
2013-10-11 08:11:00,51.5,50.1,30.07,North,360,3.0,4.0,95,0.02,,---,0.21,VWS V13.01,2013-10-11 12:11:00,
2013-10-11 08:16:00,51.4,50.0,30.07,NE,36,2.0,4.0,95,0.02,,---,0.21,VWS V13.01,2013-10-11 12:16:00,
2013-10-11 08:21:00,51.5,50.1,30.07,North,10,1.0,3.0,95,0.02,,---,0.21,VWS V13.01,2013-10-11 12:21:00,
2013-10-11 08:26:00,51.4,50.0,30.07,North,355,2.0,5.0,95,0.03,,---,0.22,VWS V13.01,2013-10-11 12:26:00,
2013-10-11 08:31:00,51.5,50.1,30.08,NE,40,2.0,4.0,95,0.03,,---,0.22,VWS V13.01,2013-10-11 12:31:00,
2013-10-11 08:36:00,51.4,50.0,30.08,North,5,3.0,4.0,95,0.04,,---,0.23,VWS V13.01,2013-10-11 12:36:00,
2013-10-11 08:41:00,51.4,50.0,30.08,NNE,22,1.0,3.0,95,0.05,,---,0.24,VWS V13.01,2013-10-11 12:41:00,
2013-10-11 08:46:00,51.5,50.1,30.08,North,5,4.0,5.0,95,0.07,,---,0.26,VWS V13.01,2013-10-11 12:46:00,
2013-10-11 08:51:00,51.4,50.0,30.08,ENE,71,2.0,5.0,95,0.08,,---,0.28,VWS V13.01,2013-10-11 12:51:00,
2013-10-11 08:56:00,51.4,50.0,30.08,NNE,17,3.0,8.0,95,0.11,,---,0.31,VWS V13.01,2013-10-11 12:56:00,
2013-10-11 09:01:00,51.4,50.0,30.08,NNE,21,3.0,5.0,95,0.13,,---,0.33,VWS V13.01,2013-10-11 13:01:00,
2013-10-11 09:06:00,51.4,50.0,30.08,North,360,5.0,7.0,95,0.14,,---,0.34,VWS V13.01,2013-10-11 13:06:00,
2013-10-11 09:11:00,51.5,50.1,30.08,NE,35,2.0,4.0,95,0.13,,---,0.34,VWS V13.01,2013-10-11 13:11:00,
2013-10-11 09:16:00,51.5,50.1,30.08,NNE,30,2.0,5.0,95,0.14,,---,0.35,VWS V13.01,2013-10-11 13:16:00,
2013-10-11 09:21:00,51.6,50.5,30.08,North,355,5.0,7.0,96,0.15,,---,0.36,VWS V13.01,2013-10-11 13:21:00,
2013-10-11 09:26:00,51.6,50.2,30.08,NNE,14,2.0,7.0,95,0.16,,---,0.37,VWS V13.01,2013-10-11 13:26:00,
2013-10-11 09:31:00,51.5,50.1,30.08,NNE,28,0.0,4.0,95,0.18,,---,0.40,VWS V13.01,2013-10-11 13:31:00,
2013-10-11 09:36:00,51.5,50.1,30.08,North,5,1.0,4.0,95,0.20,,---,0.42,VWS V13.01,2013-10-11 13:36:00,
2013-10-11 09:41:00,51.5,50.1,30.08,North,355,3.0,7.0,95,0.21,,---,0.45,VWS V13.01,2013-10-11 13:41:00,
2013-10-11 09:46:00,51.5,50.1,30.08,North,360,3.0,7.0,95,0.23,,---,0.47,VWS V13.01,2013-10-11 13:46:00,
2013-10-11 09:51:00,51.5,50.4,30.08,North,5,0.0,3.0,96,0.21,,---,0.48,VWS V13.01,2013-10-11 13:51:00,
2013-10-11 09:56:00,51.7,50.6,30.09,North,355,3.0,5.0,96,0.21,,---,0.48,VWS V13.01,2013-10-11 13:56:00,
2013-10-11 10:01:00,51.9,50.8,30.09,NNE,27,4.0,4.0,96,0.16,,---,0.48,VWS V13.01,2013-10-11 14:01:00,
2013-10-11 10:06:00,52.1,51.0,30.09,North,360,2.0,4.0,96,0.16,,---,0.48,VWS V13.01,2013-10-11 14:06:00,
2013-10-11 10:11:00,52.2,51.1,30.09,NNE,27,1.0,3.0,96,0.14,,---,0.48,VWS V13.01,2013-10-11 14:11:00,
2013-10-11 10:16:00,52.4,51.3,30.09,NE,36,1.0,4.0,96,0.14,,---,0.48,VWS V13.01,2013-10-11 14:16:00,
2013-10-11 10:21:00,52.5,51.4,30.08,NE,34,4.0,4.0,96,0.13,,---,0.48,VWS V13.01,2013-10-11 14:21:00,
2013-10-11 10:26:00,52.6,51.5,30.08,North,360,1.0,4.0,96,0.13,,---,0.48,VWS V13.01,2013-10-11 14:26:00,
2013-10-11 10:31:00,52.8,51.7,30.08,NNE,25,4.0,4.0,96,0.10,,---,0.49,VWS V13.01,2013-10-11 14:31:00,
2013-10-11 10:36:00,52.9,51.8,30.09,NE,36,6.0,7.0,96,0.10,,---,0.49,VWS V13.01,2013-10-11 14:36:00,
2013-10-11 10:41:00,53.0,51.9,30.09,NNE,28,2.0,5.0,96,0.05,,---,0.49,VWS V13.01,2013-10-11 14:41:00,
2013-10-11 10:46:00,53.1,52.0,30.09,NNW,348,3.0,5.0,96,0.05,,---,0.49,VWS V13.01,2013-10-11 14:46:00,
2013-10-11 10:51:00,53.1,51.7,30.09,NNE,18,5.0,6.0,95,0.02,,---,0.49,VWS V13.01,2013-10-11 14:51:00,
2013-10-11 10:56:00,53.1,51.7,30.09,North,9,2.0,8.0,95,0.02,,---,0.49,VWS V13.01,2013-10-11 14:56:00,
2013-10-11 11:01:00,53.1,51.7,30.09,North,355,2.0,6.0,95,0.01,,---,0.49,VWS V13.01,2013-10-11 15:01:00,
2013-10-11 11:06:00,53.2,51.8,30.09,North,360,1.0,7.0,95,0.01,,---,0.49,VWS V13.01,2013-10-11 15:06:00,
2013-10-11 11:11:00,53.4,52.0,30.09,North,355,4.0,8.0,95,0.01,,---,0.49,VWS V13.01,2013-10-11 15:11:00,
2013-10-11 11:16:00,53.5,52.1,30.09,NE,34,3.0,8.0,95,0.02,,---,0.50,VWS V13.01,2013-10-11 15:16:00,
2013-10-11 11:21:00,53.6,52.2,30.09,NNE,32,3.0,6.0,95,0.02,,---,0.50,VWS V13.01,2013-10-11 15:21:00,
2013-10-11 11:26:00,53.7,52.3,30.09,North,5,2.0,6.0,95,0.02,,---,0.50,VWS V13.01,2013-10-11 15:26:00,
2013-10-11 11:31:00,53.9,52.5,30.09,NNE,16,0.0,4.0,95,0.01,,---,0.50,VWS V13.01,2013-10-11 15:31:00,
2013-10-11 11:36:00,54.1,52.7,30.09,NNE,32,0.0,5.0,95,0.01,,---,0.50,VWS V13.01,2013-10-11 15:36:00,
2013-10-11 11:41:00,54.3,52.9,30.08,NNE,28,0.0,3.0,95,0.02,,---,0.51,VWS V13.01,2013-10-11 15:41:00,
2013-10-11 11:46:00,54.6,53.2,30.08,NE,35,0.0,3.0,95,0.02,,---,0.51,VWS V13.01,2013-10-11 15:46:00,
2013-10-11 11:51:00,54.8,53.4,30.08,NNE,32,3.0,4.0,95,0.03,,---,0.52,VWS V13.01,2013-10-11 15:51:00,
2013-10-11 11:56:00,54.9,53.5,30.08,North,360,4.0,6.0,95,0.03,,---,0.52,VWS V13.01,2013-10-11 15:56:00,
2013-10-11 12:01:00,54.9,53.5,30.08,North,9,5.0,5.0,95,0.03,,---,0.52,VWS V13.01,2013-10-11 16:01:00,
2013-10-11 12:06:00,54.8,53.1,30.08,NNE,15,7.0,8.0,94,0.03,,---,0.52,VWS V13.01,2013-10-11 16:06:00,
2013-10-11 12:11:00,54.7,53.0,30.08,North,355,1.0,8.0,94,0.03,,---,0.52,VWS V13.01,2013-10-11 16:11:00,
2013-10-11 12:16:00,54.8,53.1,30.08,North,355,7.0,9.0,94,0.03,,---,0.52,VWS V13.01,2013-10-11 16:16:00,
2013-10-11 12:21:00,54.8,53.1,30.08,NNE,28,6.0,7.0,94,0.03,,---,0.53,VWS V13.01,2013-10-11 16:21:00,
2013-10-11 12:26:00,55.0,53.6,30.08,North,355,4.0,7.0,95,0.03,,---,0.53,VWS V13.01,2013-10-11 16:26:00,
2013-10-11 12:31:00,55.2,53.8,30.08,NNE,14,4.0,6.0,95,0.03,,---,0.53,VWS V13.01,2013-10-11 16:31:00,
2013-10-11 12:36:00,55.4,53.7,30.08,NNW,347,2.0,8.0,94,0.03,,---,0.53,VWS V13.01,2013-10-11 16:36:00,
2013-10-11 12:41:00,55.7,54.3,30.08,NE,44,5.0,6.0,95,0.02,,---,0.53,VWS V13.01,2013-10-11 16:41:00,
2013-10-11 12:46:00,55.8,54.1,30.08,North,360,4.0,8.0,94,0.02,,---,0.53,VWS V13.01,2013-10-11 16:46:00,
2013-10-11 12:51:00,55.8,54.1,30.07,NNE,29,3.0,5.0,94,0.01,,---,0.53,VWS V13.01,2013-10-11 16:51:00,
2013-10-11 12:56:00,55.9,54.2,30.07,NNE,15,1.0,7.0,94,0.01,,---,0.53,VWS V13.01,2013-10-11 16:56:00,
2013-10-11 13:01:00,56.0,54.3,30.07,North,360,5.0,6.0,94,0.01,,---,0.53,VWS V13.01,2013-10-11 17:01:00,
2013-10-11 13:06:00,56.0,54.3,30.07,NNE,27,3.0,7.0,94,0.01,,---,0.53,VWS V13.01,2013-10-11 17:06:00,
2013-10-11 13:11:00,56.0,54.3,30.07,North,5,3.0,8.0,94,0.02,,---,0.54,VWS V13.01,2013-10-11 17:11:00,
2013-10-11 13:16:00,55.9,54.2,30.07,ENE,59,4.0,8.0,94,0.02,,---,0.54,VWS V13.01,2013-10-11 17:16:00,
2013-10-11 13:21:00,56.0,54.3,30.07,North,355,2.0,5.0,94,0.01,,---,0.54,VWS V13.01,2013-10-11 17:21:00,
2013-10-11 13:26:00,56.0,54.3,30.07,NNW,346,2.0,5.0,94,0.01,,---,0.54,VWS V13.01,2013-10-11 17:26:00,
2013-10-11 13:31:00,56.0,54.3,30.07,NNW,345,4.0,5.0,94,0.01,,---,0.54,VWS V13.01,2013-10-11 17:31:00,
2013-10-11 13:36:00,55.9,54.2,30.07,NNE,13,3.0,6.0,94,0.01,,---,0.54,VWS V13.01,2013-10-11 17:36:00,
2013-10-11 13:41:00,55.9,54.2,30.06,NE,39,2.0,4.0,94,0.01,,---,0.54,VWS V13.01,2013-10-11 17:41:00,
2013-10-11 13:46:00,55.9,54.2,30.06,NNE,28,3.0,6.0,94,0.01,,---,0.54,VWS V13.01,2013-10-11 17:46:00,
2013-10-11 13:51:00,55.7,54.0,30.06,NNE,15,5.0,7.0,94,0.01,,---,0.54,VWS V13.01,2013-10-11 17:51:00,
2013-10-11 13:56:00,55.6,53.9,30.06,NNW,342,5.0,7.0,94,0.01,,---,0.54,VWS V13.01,2013-10-11 17:56:00,
2013-10-11 14:01:00,55.6,53.9,30.06,NNE,23,2.0,4.0,94,0.02,,---,0.55,VWS V13.01,2013-10-11 18:01:00,
2013-10-11 14:06:00,55.8,54.4,30.06,North,9,0.0,4.0,95,0.02,,---,0.55,VWS V13.01,2013-10-11 18:06:00,
2013-10-11 14:11:00,55.9,54.5,30.06,NE,40,4.0,5.0,95,0.01,,---,0.55,VWS V13.01,2013-10-11 18:11:00,
2013-10-11 14:16:00,55.9,54.5,30.06,North,351,2.0,5.0,95,0.01,,---,0.55,VWS V13.01,2013-10-11 18:16:00,
2013-10-11 14:21:00,55.9,54.5,30.06,North,5,1.0,5.0,95,0.01,,---,0.55,VWS V13.01,2013-10-11 18:21:00,
2013-10-11 14:26:00,55.8,54.1,30.06,North,351,3.0,5.0,94,0.01,,---,0.55,VWS V13.01,2013-10-11 18:26:00,
2013-10-11 14:31:00,55.9,54.5,30.06,North,9,3.0,5.0,95,0.01,,---,0.55,VWS V13.01,2013-10-11 18:31:00,
2013-10-11 14:36:00,56.0,54.6,30.05,North,351,2.0,5.0,95,0.01,,---,0.55,VWS V13.01,2013-10-11 18:36:00,
2013-10-11 14:41:00,56.0,54.3,30.06,NNW,345,4.0,6.0,94,0.01,,---,0.55,VWS V13.01,2013-10-11 18:41:00,
2013-10-11 14:46:00,56.1,54.7,30.05,North,5,1.0,6.0,95,0.01,,---,0.55,VWS V13.01,2013-10-11 18:46:00,
2013-10-11 14:51:00,56.2,54.8,30.05,NNE,30,0.0,5.0,95,0.01,,---,0.55,VWS V13.01,2013-10-11 18:51:00,
2013-10-11 14:56:00,56.4,55.0,30.05,North,5,6.0,7.0,95,0.01,,---,0.55,VWS V13.01,2013-10-11 18:56:00,
2013-10-11 15:01:00,56.4,54.7,30.05,North,11,3.0,5.0,94,0.01,,---,0.55,VWS V13.01,2013-10-11 19:01:00,
2013-10-11 15:06:00,56.5,54.8,30.05,North,5,5.0,7.0,94,0.01,,---,0.55,VWS V13.01,2013-10-11 19:06:00,
2013-10-11 15:11:00,56.5,54.5,30.05,North,355,4.0,5.0,93,0.00,,---,0.55,VWS V13.01,2013-10-11 19:11:00,
2013-10-11 15:16:00,56.6,54.6,30.05,NE,36,1.0,7.0,93,0.00,,---,0.55,VWS V13.01,2013-10-11 19:16:00,
2013-10-11 15:21:00,56.6,54.6,30.05,NE,42,1.0,7.0,93,0.00,,---,0.55,VWS V13.01,2013-10-11 19:21:00,
2013-10-11 15:26:00,56.6,54.6,30.05,NNE,19,4.0,7.0,93,0.00,,---,0.55,VWS V13.01,2013-10-11 19:26:00,
2013-10-11 15:31:00,56.7,54.7,30.05,North,355,1.0,4.0,93,0.00,,---,0.55,VWS V13.01,2013-10-11 19:31:00,
2013-10-11 15:36:00,56.8,54.8,30.05,North,11,4.0,4.0,93,0.00,,---,0.55,VWS V13.01,2013-10-11 19:36:00,
2013-10-11 15:41:00,56.9,54.9,30.05,NNE,24,1.0,4.0,93,0.00,,---,0.55,VWS V13.01,2013-10-11 19:41:00,
2013-10-11 15:46:00,57.1,55.1,30.05,NE,52,1.0,5.0,93,0.00,,---,0.55,VWS V13.01,2013-10-11 19:46:00,
2013-10-11 15:51:00,57.2,55.2,30.05,NNE,32,4.0,5.0,93,0.00,,---,0.55,VWS V13.01,2013-10-11 19:51:00,
2013-10-11 15:56:00,57.3,55.3,30.05,NE,38,6.0,6.0,93,0.00,,---,0.55,VWS V13.01,2013-10-11 19:56:00,
2013-10-11 16:01:00,57.4,55.1,30.05,North,355,2.0,5.0,92,0.00,,---,0.55,VWS V13.01,2013-10-11 20:01:00,
2013-10-11 16:06:00,57.5,55.2,30.05,NNE,15,2.0,5.0,92,0.00,,---,0.55,VWS V13.01,2013-10-11 20:06:00,
2013-10-11 16:11:00,57.7,55.7,30.05,NE,46,1.0,6.0,93,0.00,,---,0.55,VWS V13.01,2013-10-11 20:11:00,
2013-10-11 16:16:00,57.8,55.8,30.05,ENE,59,0.0,6.0,93,0.00,,---,0.55,VWS V13.01,2013-10-11 20:16:00,
2013-10-11 16:21:00,57.9,55.6,30.05,NE,44,0.0,4.0,92,0.00,,---,0.55,VWS V13.01,2013-10-11 20:21:00,
2013-10-11 16:26:00,58.0,55.7,30.05,NE,49,3.0,4.0,92,0.00,,---,0.55,VWS V13.01,2013-10-11 20:26:00,
2013-10-11 16:31:00,58.0,55.7,30.05,NNE,30,2.0,5.0,92,0.00,,---,0.55,VWS V13.01,2013-10-11 20:31:00,
2013-10-11 16:36:00,58.0,55.7,30.05,NE,51,1.0,5.0,92,0.00,,---,0.55,VWS V13.01,2013-10-11 20:36:00,
2013-10-11 16:41:00,58.0,55.7,30.06,North,360,0.0,5.0,92,0.00,,---,0.55,VWS V13.01,2013-10-11 20:41:00,
2013-10-11 16:46:00,57.9,55.6,30.06,North,360,1.0,5.0,92,0.00,,---,0.55,VWS V13.01,2013-10-11 20:46:00,
2013-10-11 16:51:00,57.9,55.6,30.06,North,351,2.0,5.0,92,0.00,,---,0.55,VWS V13.01,2013-10-11 20:51:00,
2013-10-11 16:56:00,57.7,55.4,30.06,North,5,4.0,6.0,92,0.00,,---,0.55,VWS V13.01,2013-10-11 20:56:00,
2013-10-11 17:01:00,57.7,55.4,30.06,North,5,3.0,5.0,92,0.00,,---,0.55,VWS V13.01,2013-10-11 21:01:00,
2013-10-11 17:06:00,57.6,55.3,30.06,NNE,28,1.0,6.0,92,0.00,,---,0.55,VWS V13.01,2013-10-11 21:06:00,
2013-10-11 17:11:00,57.6,55.6,30.06,North,355,2.0,5.0,93,0.00,,---,0.55,VWS V13.01,2013-10-11 21:11:00,
2013-10-11 17:16:00,57.6,55.3,30.06,NNE,13,2.0,5.0,92,0.00,,---,0.55,VWS V13.01,2013-10-11 21:16:00,
2013-10-11 17:21:00,57.4,55.1,30.06,NNE,18,3.0,5.0,92,0.00,,---,0.55,VWS V13.01,2013-10-11 21:21:00,
2013-10-11 17:26:00,57.3,55.0,30.06,NNE,23,2.0,5.0,92,0.00,,---,0.55,VWS V13.01,2013-10-11 21:26:00,
2013-10-11 17:31:00,57.3,55.0,30.06,NNE,19,1.0,3.0,92,0.00,,---,0.55,VWS V13.01,2013-10-11 21:31:00,
2013-10-11 17:36:00,57.3,55.0,30.07,NNE,27,2.0,5.0,92,0.00,,---,0.55,VWS V13.01,2013-10-11 21:36:00,
2013-10-11 17:41:00,57.3,55.0,30.07,NE,38,3.0,6.0,92,0.00,,---,0.55,VWS V13.01,2013-10-11 21:41:00,
2013-10-11 17:46:00,57.2,54.9,30.07,NE,40,1.0,6.0,92,0.00,,---,0.55,VWS V13.01,2013-10-11 21:46:00,
2013-10-11 17:51:00,57.2,54.9,30.07,North,11,0.0,3.0,92,0.00,,---,0.55,VWS V13.01,2013-10-11 21:51:00,
2013-10-11 17:56:00,57.2,55.2,30.07,NE,34,1.0,3.0,93,0.00,,---,0.55,VWS V13.01,2013-10-11 21:56:00,
2013-10-11 18:01:00,57.3,55.3,30.07,NE,41,1.0,2.0,93,0.00,,---,0.55,VWS V13.01,2013-10-11 22:01:00,
2013-10-11 18:06:00,57.2,55.2,30.07,NE,41,0.0,2.0,93,0.00,,---,0.55,VWS V13.01,2013-10-11 22:06:00,
2013-10-11 18:11:00,57.2,55.2,30.07,NE,42,0.0,1.0,93,0.00,,---,0.55,VWS V13.01,2013-10-11 22:11:00,
2013-10-11 18:16:00,57.2,55.2,30.07,NE,42,0.0,2.0,93,0.00,,---,0.55,VWS V13.01,2013-10-11 22:16:00,
2013-10-11 18:21:00,57.2,55.2,30.07,NE,42,0.0,1.0,93,0.00,,---,0.55,VWS V13.01,2013-10-11 22:21:00,
2013-10-11 18:26:00,57.2,55.2,30.07,NE,42,0.0,2.0,93,0.00,,---,0.55,VWS V13.01,2013-10-11 22:26:00,
2013-10-11 18:31:00,57.2,55.2,30.07,NE,42,0.0,2.0,93,0.00,,---,0.55,VWS V13.01,2013-10-11 22:31:00,
2013-10-11 18:36:00,57.2,55.2,30.07,NE,42,0.0,2.0,93,0.00,,---,0.55,VWS V13.01,2013-10-11 22:36:00,
2013-10-11 18:41:00,57.2,55.2,30.07,NE,42,0.0,2.0,93,0.00,,---,0.55,VWS V13.01,2013-10-11 22:41:00,
2013-10-11 18:46:00,57.2,55.2,30.08,NE,42,1.0,2.0,93,0.00,,---,0.55,VWS V13.01,2013-10-11 22:46:00,
2013-10-11 18:51:00,57.2,55.2,30.07,North,9,0.0,3.0,93,0.00,,---,0.55,VWS V13.01,2013-10-11 22:51:00,
2013-10-11 18:56:00,57.2,55.2,30.07,North,9,0.0,3.0,93,0.00,,---,0.55,VWS V13.01,2013-10-11 22:56:00,
2013-10-11 19:01:00,57.2,55.2,30.07,North,9,1.0,1.0,93,0.00,,---,0.55,VWS V13.01,2013-10-11 23:01:00,
2013-10-11 19:06:00,57.2,55.5,30.08,North,9,0.0,1.0,94,0.00,,---,0.55,VWS V13.01,2013-10-11 23:06:00,
2013-10-11 19:11:00,57.2,55.5,30.07,North,9,0.0,0.0,94,0.00,,---,0.55,VWS V13.01,2013-10-11 23:11:00,
2013-10-11 19:16:00,57.2,55.5,30.07,North,9,0.0,1.0,94,0.00,,---,0.55,VWS V13.01,2013-10-11 23:16:00,
2013-10-11 19:21:00,57.2,55.5,30.08,NE,34,1.0,2.0,94,0.00,,---,0.55,VWS V13.01,2013-10-11 23:21:00,
2013-10-11 19:26:00,57.2,55.5,30.08,NE,37,0.0,2.0,94,0.00,,---,0.55,VWS V13.01,2013-10-11 23:26:00,
2013-10-11 19:31:00,57.1,55.4,30.08,NE,37,0.0,0.0,94,0.00,,---,0.55,VWS V13.01,2013-10-11 23:31:00,
2013-10-11 19:36:00,57.1,55.4,30.08,NE,37,0.0,0.0,94,0.00,,---,0.55,VWS V13.01,2013-10-11 23:36:00,
2013-10-11 19:41:00,57.1,55.4,30.08,NE,37,0.0,0.0,94,0.00,,---,0.55,VWS V13.01,2013-10-11 23:41:00,
2013-10-11 19:46:00,57.1,55.4,30.08,NE,37,2.0,2.0,94,0.00,,---,0.55,VWS V13.01,2013-10-11 23:46:00,
2013-10-11 19:51:00,57.1,55.4,30.08,NE,37,0.0,1.0,94,0.00,,---,0.55,VWS V13.01,2013-10-11 23:51:00,
2013-10-11 19:56:00,57.0,55.3,30.08,NE,37,0.0,1.0,94,0.00,,---,0.55,VWS V13.01,2013-10-11 23:56:00,
2013-10-11 20:01:00,57.0,55.3,30.08,NE,37,0.0,2.0,94,0.00,,---,0.55,VWS V13.01,2013-10-12 00:01:00,
2013-10-11 20:06:00,57.0,55.3,30.08,NE,37,0.0,2.0,94,0.00,,---,0.55,VWS V13.01,2013-10-12 00:06:00,
2013-10-11 20:11:00,57.0,55.6,30.08,NE,37,0.0,3.0,95,0.00,,---,0.55,VWS V13.01,2013-10-12 00:11:00,
2013-10-11 20:16:00,57.0,55.6,30.08,NNE,30,1.0,4.0,95,0.00,,---,0.55,VWS V13.01,2013-10-12 00:16:00,
2013-10-11 20:21:00,57.0,55.6,30.08,NNE,30,3.0,4.0,95,0.00,,---,0.55,VWS V13.01,2013-10-12 00:21:00,
2013-10-11 20:26:00,57.0,55.6,30.08,NE,34,0.0,4.0,95,0.00,,---,0.55,VWS V13.01,2013-10-12 00:26:00,
2013-10-11 20:31:00,57.0,55.6,30.08,North,5,2.0,4.0,95,0.00,,---,0.55,VWS V13.01,2013-10-12 00:31:00,
2013-10-11 20:36:00,56.9,55.5,30.08,NNE,27,3.0,4.0,95,0.00,,---,0.55,VWS V13.01,2013-10-12 00:36:00,
2013-10-11 20:41:00,56.9,55.2,30.07,ENE,58,2.0,4.0,94,0.00,,---,0.55,VWS V13.01,2013-10-12 00:41:00,
2013-10-11 20:46:00,56.9,55.2,30.07,NE,53,1.0,5.0,94,0.00,,---,0.55,VWS V13.01,2013-10-12 00:46:00,
2013-10-11 20:51:00,56.9,55.2,30.07,NE,45,1.0,4.0,94,0.00,,---,0.55,VWS V13.01,2013-10-12 00:51:00,
2013-10-11 20:56:00,57.0,55.3,30.07,NE,46,0.0,4.0,94,0.00,,---,0.55,VWS V13.01,2013-10-12 00:56:00,
2013-10-11 21:01:00,56.9,55.2,30.07,NNE,17,2.0,3.0,94,0.00,,---,0.55,VWS V13.01,2013-10-12 01:01:00,
2013-10-11 21:06:00,56.9,54.9,30.07,NE,49,1.0,3.0,93,0.00,,---,0.55,VWS V13.01,2013-10-12 01:06:00,
2013-10-11 21:11:00,56.9,54.9,30.07,NNE,28,2.0,3.0,93,0.00,,---,0.55,VWS V13.01,2013-10-12 01:11:00,
2013-10-11 21:16:00,56.9,54.9,30.07,NNE,32,2.0,3.0,93,0.00,,---,0.55,VWS V13.01,2013-10-12 01:16:00,
2013-10-11 21:21:00,56.9,55.2,30.07,NNE,31,3.0,3.0,94,0.00,,---,0.55,VWS V13.01,2013-10-12 01:21:00,
2013-10-11 21:26:00,56.9,54.9,30.07,NE,38,1.0,4.0,93,0.00,,---,0.55,VWS V13.01,2013-10-12 01:26:00,
2013-10-11 21:31:00,56.9,54.9,30.07,NE,42,0.0,3.0,93,0.00,,---,0.55,VWS V13.01,2013-10-12 01:31:00,
2013-10-11 21:36:00,56.8,54.8,30.07,NE,45,1.0,3.0,93,0.00,,---,0.55,VWS V13.01,2013-10-12 01:36:00,
2013-10-11 21:41:00,56.8,54.5,30.07,NE,51,0.0,3.0,92,0.00,,---,0.55,VWS V13.01,2013-10-12 01:41:00,
2013-10-11 21:46:00,56.8,54.5,30.07,ENE,63,2.0,4.0,92,0.00,,---,0.55,VWS V13.01,2013-10-12 01:46:00,
2013-10-11 21:51:00,56.6,54.3,30.07,ENE,59,0.0,3.0,92,0.00,,---,0.55,VWS V13.01,2013-10-12 01:51:00,
2013-10-11 21:56:00,56.6,54.3,30.07,ENE,57,2.0,4.0,92,0.00,,---,0.55,VWS V13.01,2013-10-12 01:56:00,
2013-10-11 22:02:00,56.5,54.2,30.07,ENE,59,4.0,4.0,92,0.00,,---,0.55,VWS V13.01,2013-10-12 02:02:00,
2013-10-11 22:07:00,56.4,54.1,30.07,NE,49,1.0,5.0,92,0.00,,---,0.55,VWS V13.01,2013-10-12 02:07:00,
2013-10-11 22:12:00,56.4,54.1,30.07,NE,47,0.0,3.0,92,0.00,,---,0.55,VWS V13.01,2013-10-12 02:12:00,
2013-10-11 22:17:00,56.3,54.0,30.07,NE,47,0.0,3.0,92,0.00,,---,0.55,VWS V13.01,2013-10-12 02:17:00,
2013-10-11 22:22:00,56.3,54.0,30.07,NE,47,0.0,1.0,92,0.00,,---,0.55,VWS V13.01,2013-10-12 02:22:00,
2013-10-11 22:27:00,56.2,53.9,30.07,NE,47,0.0,1.0,92,0.00,,---,0.55,VWS V13.01,2013-10-12 02:27:00,
2013-10-11 22:32:00,56.0,53.7,30.07,NE,47,0.0,0.0,92,0.00,,---,0.55,VWS V13.01,2013-10-12 02:32:00,
2013-10-11 22:37:00,55.9,53.6,30.07,NE,47,0.0,0.0,92,0.00,,---,0.55,VWS V13.01,2013-10-12 02:37:00,
2013-10-11 22:42:00,55.7,53.7,30.07,NE,47,0.0,1.0,93,0.00,,---,0.55,VWS V13.01,2013-10-12 02:42:00,
2013-10-11 22:47:00,55.5,53.5,30.07,NE,47,0.0,1.0,93,0.00,,---,0.55,VWS V13.01,2013-10-12 02:47:00,
2013-10-11 22:52:00,55.4,53.4,30.07,NE,47,0.0,0.0,93,0.00,,---,0.55,VWS V13.01,2013-10-12 02:52:00,
2013-10-11 22:57:00,55.2,53.2,30.07,NE,47,1.0,1.0,93,0.00,,---,0.55,VWS V13.01,2013-10-12 02:57:00,
2013-10-11 23:02:00,55.1,53.1,30.07,NE,47,0.0,2.0,93,0.00,,---,0.55,VWS V13.01,2013-10-12 03:02:00,
2013-10-11 23:07:00,55.0,53.3,30.07,NE,47,0.0,2.0,94,0.00,,---,0.55,VWS V13.01,2013-10-12 03:07:00,
2013-10-11 23:12:00,54.9,53.2,30.07,NE,47,0.0,0.0,94,0.00,,---,0.55,VWS V13.01,2013-10-12 03:12:00,
2013-10-11 23:17:00,54.8,53.1,30.07,NE,47,0.0,0.0,94,0.00,,---,0.55,VWS V13.01,2013-10-12 03:17:00,
2013-10-11 23:22:00,54.6,52.9,30.07,NE,47,0.0,0.0,94,0.00,,---,0.55,VWS V13.01,2013-10-12 03:22:00,
2013-10-11 23:27:00,54.5,52.8,30.07,NE,47,0.0,0.0,94,0.00,,---,0.55,VWS V13.01,2013-10-12 03:27:00,
2013-10-11 23:32:00,54.4,52.7,30.07,NE,47,0.0,1.0,94,0.00,,---,0.55,VWS V13.01,2013-10-12 03:32:00,
2013-10-11 23:37:00,54.2,52.5,30.07,NE,47,2.0,2.0,94,0.00,,---,0.55,VWS V13.01,2013-10-12 03:37:00,
2013-10-11 23:42:00,54.1,52.4,30.07,NE,47,1.0,3.0,94,0.00,,---,0.55,VWS V13.01,2013-10-12 03:42:00,
2013-10-11 23:47:00,54.0,52.3,30.07,NE,38,3.0,6.0,94,0.00,,---,0.55,VWS V13.01,2013-10-12 03:47:00,
2013-10-11 23:52:00,54.1,52.4,30.06,NNE,22,3.0,6.0,94,0.00,,---,0.55,VWS V13.01,2013-10-12 03:52:00,
2013-10-11 23:57:00,54.2,52.2,30.06,NE,47,3.0,6.0,93,0.00,,---,0.55,VWS V13.01,2013-10-12 03:57:00,